Station DULM5 - 9099064 - Duluth, MN Image indicating link to RSS feed of recent meteorological observations for station DULM5


Conditions at DULM5 as of
(3:00 pm CDT)
2000 GMT on 04/16/2024:
     

Click on the graph icon in the table below to see a time series plot of the last five days of that observation.

5-day plot - Wind Direction Wind Direction (WDIR): NE ( 40 deg true )
5-day plot - Wind Speed Wind Speed (WSPD): 21.0 kts
5-day plot - Wind Gust Wind Gust (GST): 33.0 kts
5-day plot - Atmospheric Pressure Atmospheric Pressure (PRES):29.80 in
5-day plot - Pressure Tendency Pressure Tendency (PTDY):-0.14 in ( Falling Rapidly )
5-day plot - Air Temperature Air Temperature (ATMP): 40.8 °F
5-day plot - Water Temperature Water Temperature (WTMP): 45.1 °F
5-day plot - Dew Point Dew Point (DEWP): 32.7 °F
5-day plot - Wind Chill Wind Chill (CHILL): 30.6 °F
5-day plot - Wind Speed at 10 Meters Wind Speed at 10 meters (WSPD10M): 19.4 kts
5-day plot - Wind Speed at 20 Meters Wind Speed at 20 meters (WSPD20M): 21.4 kts
5-day plot -  Wind Speed, Wind Gust and Atmospheric Pressure Combined plot of Wind Speed, Gust, and Air Pressure
NOS Water Level Observation Network Water Level
Previous observations
TIME
(CDT)
5-day plot - Wind Direction
WDIR
 
5-day plot - Wind Speed
WSPD
kts
5-day plot - Wind Gust
GST
kts
5-day plot - Wave Height
WVHT
ft
5-day plot - Dominant Wave Period
DPD
sec
5-day plot - Average Wave Period
APD
sec
5-day plot - Mean Wave Direction
MWD
 
5-day plot - Atmospheric Pressure
PRES
in
5-day plot - Pressure Tendency
PTDY
in
5-day plot - Air Temperature
ATMP
°F
5-day plot - Water Temperature
WTMP
°F
5-day plot - Dew Point
DEWP
°F
5-day plot - Salinity
SAL
psu
5-day plot - Visibility
VIS
nmi
5-day plot - Tide (above MLLW)
TIDE
ft
2024-04-16 02:54 pm NE 21.0 32.1----29.80- 40.8 45.1 32.7---
2024-04-16 02:48 pm NE 24.1 34.0----29.80- 40.8 45.1 32.9---
2024-04-16 02:42 pm NE 21.0 29.9----29.82- 40.8 45.1 33.1---
2024-04-16 02:36 pm NE 19.0 33.0----29.82- 40.8 45.1 33.1---
2024-04-16 02:30 pm NE 20.0 32.1----29.84- 40.6 45.1 32.9---
2024-04-16 02:24 pm NE 20.0 34.0----29.84- 40.8 45.1 33.1---
2024-04-16 02:18 pm NE 24.1 34.0----29.83- 40.5 45.1 32.9---
2024-04-16 02:12 pm NE 19.0 34.0----29.86- 40.5 45.1 33.1---
2024-04-16 02:06 pm NE 21.0 35.0----29.86- 40.5 45.1 32.9---
2024-04-16 02:00 pm NE 20.0 33.0----29.86-0.10 40.6 45.1 33.1---
2024-04-16 01:54 pmNNE 22.0 33.0----29.86- 40.6 45.1 32.9---
2024-04-16 01:48 pm NE 21.0 32.1----29.87- 40.8 45.1 33.3---
2024-04-16 01:42 pm NE 19.0 32.1----29.87- 40.6 45.1 33.3---
2024-04-16 01:36 pm NE 22.0 29.9----29.88- 40.6 45.1 33.3---
2024-04-16 01:30 pm NE 21.0 32.1----29.88- 40.8 45.1 33.6---
2024-04-16 01:24 pm NE 19.0 34.0----29.88- 40.8 45.1 33.6---
2024-04-16 01:18 pm NE 17.1 28.9----29.89- 41.0 45.1 33.6---
2024-04-16 01:12 pm NE 18.1 29.9----29.89- 41.0 45.1 33.4---
2024-04-16 01:06 pm NE 19.0 29.9----29.90- 41.4 45.1 33.3---
2024-04-16 01:00 pm NE 20.0 29.9----29.90-0.08 41.7 45.0 33.4---
2024-04-16 12:54 pm NE 20.0 31.1----29.90- 41.9 45.0 33.6---
2024-04-16 12:48 pm NE 22.0 31.1----29.90- 42.1 45.0 33.8---
2024-04-16 12:42 pm NE 21.0 31.1----29.90- 41.9 45.0 33.8---
2024-04-16 12:36 pm NE 22.0 29.9----29.91- 41.7 45.0 33.8---
2024-04-16 12:30 pm NE 19.0 28.9----29.91- 41.9 45.0 33.8---
2024-04-16 12:24 pm NE 20.0 28.9----29.92- 41.9 45.0 34.2---
2024-04-16 12:18 pm NE 20.0 31.1----29.92- 41.7 45.0 34.3---
2024-04-16 12:12 pm NE 21.0 28.9----29.93- 41.5 45.0 34.5---
2024-04-16 12:06 pm NE 21.0 32.1----29.93- 41.4 45.0 34.5---
2024-04-16 12:00 pm NE 20.0 31.1----29.95-0.06 41.2 45.0 34.5---
2024-04-16 11:54 am NE 20.0 27.0----29.96- 41.0 45.0 34.7---
2024-04-16 11:48 am NE 19.0 25.1----29.96- 41.0 45.0 34.5---
2024-04-16 11:42 am NE 15.9 28.9----29.97- 41.2 45.0 34.7---
2024-04-16 11:36 am NE 17.1 28.0----29.97- 41.2 45.0 34.5---
2024-04-16 11:30 am NE 18.1 27.0----29.96- 41.2 45.0 34.7---
2024-04-16 11:24 am NE 18.1 28.0----29.96- 41.4 45.0 34.9---
2024-04-16 11:18 am NE 18.1 24.1----29.96- 41.4 45.0 34.9---
2024-04-16 11:12 am NE 17.1 25.1----29.96- 41.4 45.0 34.9---
2024-04-16 11:06 am NE 18.1 25.1----29.96- 41.2 44.8 34.9---
2024-04-16 11:00 am NE 19.0 26.0----29.96-0.06 41.0 44.8 34.7---
2024-04-16 10:54 am NE 18.1 27.0----29.96- 41.0 44.8 34.7---
2024-04-16 10:48 am NE 19.0 25.1----29.97- 41.0 44.8 34.5---
2024-04-16 10:42 am NE 15.9 25.1----29.98- 41.5 44.8 34.7---
2024-04-16 10:36 am NE 15.0 26.0----29.98- 41.7 44.8 34.7---
2024-04-16 10:30 am NE 17.1 25.1----29.98- 41.5 44.8 34.3---
2024-04-16 10:24 am NE 18.1 22.0----29.98- 41.9 44.8 34.9---
2024-04-16 10:18 am NE 15.9 22.0----29.98- 41.7 44.8 34.9---
2024-04-16 10:12 am NE 15.0 24.1----29.98- 41.5 44.8 34.7---
2024-04-16 10:06 am NE 15.0 22.9----29.98- 41.5 44.8 34.7---
2024-04-16 10:00 am NE 15.0 21.0----29.98-0.04 41.9 44.8 34.7---
2024-04-16 09:54 am NE 17.1 27.0----29.97- 41.9 44.8 34.9---
2024-04-16 09:48 amNNE 18.1 26.0----29.96- 41.9 44.8 35.1---
2024-04-16 09:42 am NE 15.0 26.0----29.97- 41.4 44.8 34.7---
2024-04-16 09:36 am NE 15.0 22.9----29.97- 41.4 44.8 34.5---
2024-04-16 09:30 am NE 17.1 22.9----29.98- 41.5 44.8 34.5---
2024-04-16 09:24 am NE 17.1 25.1----29.98- 41.5 44.8 34.7---
2024-04-16 09:18 amNNE 18.1 26.0----29.98- 41.4 44.8 34.5---
2024-04-16 09:12 am NE 18.1 25.1----29.99- 41.4 44.8 34.7---
2024-04-16 09:06 am NE 15.0 22.0----30.01- 41.2 44.8 34.3---
2024-04-16 09:00 am NE 15.9 22.0----30.01+0.00 41.4 44.8 34.5---
2024-04-16 08:54 am NE 17.1 22.9----30.01- 41.2 44.8 34.2---
2024-04-16 08:48 am NE 15.9 22.0----30.01- 41.4 44.8 34.2---
2024-04-16 08:42 am NE 15.0 25.1----30.02- 41.5 44.8 34.2---
2024-04-16 08:36 am NE 13.0 20.0----30.02- 41.5 44.8 34.2---
2024-04-16 08:30 am NE 14.0 21.0----30.02- 41.5 44.8 34.2---
2024-04-16 08:24 am NE 15.9 22.9----30.02- 41.5 44.8 34.0---
2024-04-16 08:18 am NE 15.9 21.0----30.02- 41.5 44.8 34.0---
2024-04-16 08:12 am NE 15.0 22.9----30.02- 41.5 44.8 34.0---
2024-04-16 08:06 am NE 15.9 24.1----30.02- 41.5 44.8 34.0---
2024-04-16 08:00 am NE 15.9 22.9----30.02+0.02 41.4 44.8 34.2---
2024-04-16 07:54 am NE 15.9 21.0----30.03- 41.4 44.8 34.2---
2024-04-16 07:48 am NE 15.9 22.9----30.03- 41.5 44.8 34.2---
2024-04-16 07:42 am NE 15.0 24.1----30.02- 41.4 44.8 34.2---
2024-04-16 07:36 am NE 15.9 22.9----30.02- 41.4 44.8 34.2---
2024-04-16 07:30 am NE 15.9 24.1----30.01- 41.4 44.8 34.0---
2024-04-16 07:24 am NE 15.9 25.1----30.01- 41.5 44.8 34.5---
2024-04-16 07:18 amNNE 17.1 24.1----30.01- 40.8 44.8 34.2---
2024-04-16 07:12 am NE 15.0 22.9----30.01- 40.8 44.8 34.3---
2024-04-16 07:06 amNNE 17.1 21.0----30.01- 40.8 44.8 34.2---
2024-04-16 07:00 amNNE 15.0 21.0----30.02+0.04 40.8 44.8 34.2---
2024-04-16 06:54 am NE 15.0 19.0----30.03- 41.0 44.8 34.3---
2024-04-16 06:48 am NE 13.0 20.0----30.03- 41.0 44.8 34.3---
2024-04-16 06:42 am NE 14.0 19.0----30.03- 40.8 44.8 34.2---
2024-04-16 06:36 am NE 13.0 21.0----30.03- 40.8 44.8 34.3---
2024-04-16 06:30 amNNE 14.0 20.0----30.03- 40.8 44.8 34.3---
2024-04-16 06:24 am NE 12.0 20.0----30.02- 40.8 44.8 34.0---
2024-04-16 06:18 am NE 13.0 19.0----30.02- 41.0 44.8 34.0---
2024-04-16 06:12 am NE 13.0 19.0----30.01- 41.0 44.8 34.0---
2024-04-16 06:06 am NE 13.0 19.0----30.01- 41.2 44.8 34.0---
2024-04-16 06:00 am NE 13.0 22.0----30.01+0.01 41.4 44.8 33.6---
2024-04-16 05:54 amNNE 14.0 22.9----30.00- 41.7 44.8 33.8---
2024-04-16 05:48 am NE 14.0 21.0----29.99- 41.7 44.8 33.6---
2024-04-16 05:42 am NE 13.0 20.0----30.00- 41.9 44.8 33.8---
2024-04-16 05:36 am NE 13.0 21.0----30.00- 41.7 44.8 33.6---
2024-04-16 05:30 amNNE 14.0 21.0----29.99- 41.5 44.8 33.6---
2024-04-16 05:24 amNNE 14.0 20.0----30.00- 41.5 44.8 33.6---
2024-04-16 05:18 am NE 13.0 19.0----30.00- 41.7 44.8 33.6---
2024-04-16 05:12 amNNE 14.0 20.0----29.99- 41.7 44.8 33.6---
2024-04-16 05:06 amNNE 14.0 20.0----30.00- 41.7 44.8 33.6---
2024-04-16 05:00 am NE 15.0 20.0----30.00-0.02 41.5 44.8 33.4---
2024-04-16 04:54 am NE 13.0 18.1----30.01- 41.5 44.8 33.1---
2024-04-16 04:48 am NE 12.0 17.1----30.02- 41.9 44.8 32.9---
2024-04-16 04:42 am NE 11.1 15.9----30.02- 42.4 44.8 32.5---
2024-04-16 04:36 am NE 11.1 19.0----30.00- 43.0 44.8 32.5---
2024-04-16 04:30 am NE 12.0 19.0----29.98- 43.2 44.8 32.4---
2024-04-16 04:24 am NE 12.0 17.1----29.98- 43.5 44.8 32.4---
2024-04-16 04:18 am NE 12.0 17.1----29.98- 43.7 44.8 32.4---
2024-04-16 04:12 am NE 12.0 18.1----29.98- 43.5 44.8 32.5---
2024-04-16 04:06 am NE 14.0 18.1----29.98- 43.5 44.8 32.5---
2024-04-16 04:00 am NE 12.0 18.1----29.98-0.06 43.2 44.8 32.5---
2024-04-16 03:54 am NE 13.0 19.0----29.98- 43.0 44.8 32.5---
2024-04-16 03:48 am NE 15.0 21.0----29.98- 42.8 45.0 32.5---
2024-04-16 03:42 amNNE 13.0 18.1----29.98- 42.3 44.8 32.7---
2024-04-16 03:36 amNNE 12.0 18.1----29.98- 42.1 44.8 32.5---
2024-04-16 03:30 am NE 12.0 18.1----29.98- 42.3 44.8 32.4---
2024-04-16 03:24 am NE 14.0 20.0----29.98- 42.6 44.8 31.8---
2024-04-16 03:18 am NE 13.0 20.0----29.99- 43.0 44.8 32.0---
2024-04-16 03:12 am NE 9.9 15.0----30.00- 43.2 44.8 32.2---
2024-04-16 03:06 am NE 9.9 15.0----30.00- 43.3 44.8 32.9---
2024-04-16 03:00 am NE 11.1 15.9----30.00-0.02 43.2 44.8 33.3---
2024-04-16 02:54 am NE 8.9 14.0----30.00- 42.6 44.8 33.4---
2024-04-16 02:48 am NE 8.0 12.0----30.01- 42.3 44.8 33.4---
2024-04-16 02:42 am NE 9.9 15.0----30.01- 42.4 44.8 33.1---
2024-04-16 02:36 amNNE 11.1 15.9----30.01- 42.8 44.8 32.7---
2024-04-16 02:30 amNNE 9.9 13.0----30.01- 43.0 44.8 32.5---
2024-04-16 02:24 amNNE 8.9 13.0----30.01- 43.0 44.8 32.4---
2024-04-16 02:18 amNNE 8.9 13.0----30.02- 43.3 44.8 32.2---
2024-04-16 02:12 amNNE 8.0 12.0----30.02- 42.8 44.8 32.7---
2024-04-16 02:06 amNNE 6.0 8.9----30.02- 42.6 44.8 32.7---
2024-04-16 02:00 amNNE 6.0 11.1----30.02+0.00 42.6 44.8 32.9---
2024-04-16 01:54 amNNE 7.0 11.1----30.02- 42.4 44.8 32.7---
2024-04-16 01:48 amNNE 9.9 13.0----30.02- 42.4 44.8 32.9---
2024-04-16 01:42 amNNE 8.9 13.0----30.02- 42.3 44.8 32.9---
2024-04-16 01:36 amNNE 6.0 12.0----30.02- 42.1 44.8 32.9---
2024-04-16 01:30 am NE 9.9 19.0----30.00- 42.1 44.8 32.7---
2024-04-16 01:24 am NE 14.0 18.1----29.98- 42.8 44.8 32.4---
2024-04-16 01:18 am NE 13.0 17.1----30.01- 42.8 44.8 32.5---
2024-04-16 01:12 am NE 12.0 15.9----30.02- 42.8 44.8 32.4---
2024-04-16 01:06 am NE 11.1 15.0----30.03- 43.0 44.8 32.5---
2024-04-16 01:00 amNNE 8.9 12.0----30.04+0.02 42.6 44.8 32.9---
2024-04-16 12:54 amNNE 7.0 9.9----30.03- 42.4 44.8 32.9---
2024-04-16 12:48 amNNE 7.0 14.0----30.03- 42.8 44.8 32.7---
2024-04-16 12:42 am NE 9.9 15.0----30.02- 43.2 44.8 32.7---
2024-04-16 12:36 am NE 9.9 14.0----30.02- 43.3 44.8 32.9---
2024-04-16 12:30 am NE 9.9 14.0----30.01- 43.7 44.8 32.7---
2024-04-16 12:24 am NE 7.0 9.9----30.02- 44.4 44.8 32.5---
2024-04-16 12:18 am NE 5.1 8.0----30.03- 44.8 44.8 32.7---
2024-04-16 12:12 am NE 4.1 8.9----30.03- 45.0 44.8 32.4---
2024-04-16 12:06 am NE 6.0 11.1----30.02- 45.3 44.8 32.4---
2024-04-16 12:00 am NE 8.0 11.1----30.02+0.01 46.0 44.8 32.2---
2024-04-15 11:54 pm NE 7.0 9.9----30.03- 46.6 44.8 31.8---
2024-04-15 11:48 pmNNE 7.0 8.9----30.03- 47.3 44.8 30.9---
2024-04-15 11:42 pmNNE 6.0 7.0----30.03- 47.3 44.8 31.1---
2024-04-15 11:36 pmNNE 5.1 8.0----30.03- 47.8 44.8 29.8---
2024-04-15 11:30 pmNNE 6.0 8.9----30.03- 47.7 44.8 30.6---
2024-04-15 11:24 pmNNE 5.1 8.0----30.03- 48.2 44.8 30.0---
2024-04-15 11:18 pmNNE 4.1 7.0----30.03- 48.2 44.8 29.8---
2024-04-15 11:12 pmNNE 4.1 6.0----30.03- 47.1 44.8 31.1---
2024-04-15 11:06 pmNNE 5.1 7.0----30.03- 46.9 44.8 30.9---
2024-04-15 11:00 pmNNE 4.1 8.0----30.03+0.02 46.8 44.8 31.3---
2024-04-15 10:54 pmNNE 4.1 6.0----30.03- 45.9 44.8 32.7---
2024-04-15 10:48 pmNNE 5.1 6.0----30.03- 46.6 44.8 31.8---
2024-04-15 10:42 pmNNE 2.9 7.0----30.03- 46.8 44.8 31.6---
2024-04-15 10:36 pmNNE 5.1 8.0----30.02- 46.6 45.0 31.6---
2024-04-15 10:30 pmNNE 5.1 8.9----30.02- 47.3 45.0 31.1---
2024-04-15 10:24 pmNNE 5.1 8.0----30.02- 47.1 45.0 30.9---
2024-04-15 10:18 pmNNE 5.1 9.9----30.02- 47.1 45.0 31.1---
2024-04-15 10:12 pmNNE 5.1 8.0----30.02- 46.8 45.0 31.3---
2024-04-15 10:06 pmNNE 7.0 8.9----30.02- 46.0 45.0 32.2---
2024-04-15 10:00 pm NE 5.1 8.9----30.02+0.01 45.9 45.0 32.7---
2024-04-15 09:54 pmNNE 6.0 11.1----30.01- 46.6 45.0 31.5---
2024-04-15 09:48 pm NE 6.0 11.1----30.01- 47.1 45.0 31.1---
2024-04-15 09:42 pm NE 7.0 11.1----30.01- 46.2 45.0 32.4---
2024-04-15 09:36 pmNNE 6.0 8.9----30.01- 46.0 45.0 32.5---
2024-04-15 09:30 pmNNE 8.0 11.1----30.01-- 45.0----
2024-04-15 09:24 pmNNE 9.9 15.0----30.01-- 44.8----
2024-04-15 09:18 pmNNE 7.0 9.9----30.01- 46.9 45.0 31.8---
2024-04-15 09:12 pm NE 7.0 12.0----30.01- 47.5 45.0 31.1---
2024-04-15 09:06 pmNNE 8.9 14.0----30.01- 46.9 44.8 31.6---
2024-04-15 09:00 pmNNE 7.0 12.0----30.01-0.01 46.0 45.0 32.5---
2024-04-15 08:54 pm NE 7.0 12.0----30.01- 46.2 45.0 32.4---
2024-04-15 08:48 pmNNE 7.0 11.1----30.01- 46.4 45.0 32.0---
2024-04-15 08:42 pmNNE 8.0 12.0----30.00- 46.6 45.0 32.2---
2024-04-15 08:36 pmNNE 8.0 12.0----30.00- 46.8 44.8 32.2---
2024-04-15 08:30 pmNNE 7.0 11.1----30.00- 47.5 44.8 32.0---
2024-04-15 08:24 pm NE 8.9 13.0----30.00- 48.4 44.8 31.3---
2024-04-15 08:18 pmNNE 8.9 12.0----29.99- 47.5 44.8 32.0---
2024-04-15 08:12 pmNNE 7.0 12.0----30.00- 46.8 44.6 32.4---
2024-04-15 08:06 pmNNE 8.0 12.0----30.00- 45.7 44.8 32.9---
2024-04-15 08:00 pmNNE 6.0 8.9----30.00+0.00- 44.8----
2024-04-15 07:54 pmNNE 7.0 12.0----30.00-- 44.8----
2024-04-15 07:48 pm NE 7.0 8.9----30.00- 45.0 44.8 33.3---
2024-04-15 07:42 pm NE 5.1 8.0----30.00- 45.3 44.8 32.9---
2024-04-15 07:36 pm NE 5.1 8.0----30.00- 45.3 44.8 32.9---
2024-04-15 07:30 pmNNE 5.1 9.9----30.00- 45.3 44.8 32.7---
2024-04-15 07:24 pmNNE 6.0 9.9----30.00- 45.7 44.8 32.5---
2024-04-15 07:18 pmNNE 7.0 8.9----30.00-- 44.6----
2024-04-15 07:12 pmNNE 5.1 8.0----30.00-- 44.6----
2024-04-15 07:06 pmNNE 5.1 7.0----30.01-- 44.6----
2024-04-15 07:00 pmNNE 2.9 7.0----30.01+0.00 45.9 44.6 32.4---
2024-04-15 06:54 pm NE 7.0 9.9----30.01- 45.7 44.6 31.8---
2024-04-15 06:48 pm NE 5.1 8.0----30.01- 45.7 44.6 31.6---
2024-04-15 06:42 pm NE 5.1 8.9----30.01- 46.0 44.6 31.1---
2024-04-15 06:36 pmNNE 6.0 9.9----30.01- 45.9 44.6 31.5---
2024-04-15 06:30 pmNNE 6.0 8.9----30.01- 46.0 44.6 31.8---
2024-04-15 06:24 pm NE 5.1 8.9----30.01- 46.0 44.6 32.0---
2024-04-15 06:18 pm NE 5.1 8.0----30.01- 45.9 44.6 32.5---
2024-04-15 06:12 pm NE 5.1 8.0----30.01- 46.0 44.6 32.7---
2024-04-15 06:06 pmNNE 5.1 8.0----30.01- 46.9 44.6 32.4---
2024-04-15 06:00 pm NE 5.1 8.9----30.01+0.00 47.7 44.6 32.4---
2024-04-15 05:54 pm NE 6.0 8.9----30.01- 47.8 44.6 31.8---
2024-04-15 05:48 pm NE 7.0 8.9----30.01- 47.5 44.6 31.8---
2024-04-15 05:42 pmNNE 6.0 8.9----30.01- 47.5 44.6 31.6---
2024-04-15 05:36 pmNNE 6.0 8.9----30.01- 47.3 44.6 31.6---
2024-04-15 05:30 pm NE 6.0 9.9----30.01-- 44.6----
2024-04-15 05:24 pmNNE 5.1 8.0----30.01-- 44.6----
2024-04-15 05:18 pmNNE 5.1 8.0----30.01- 48.2 44.6 31.5---
2024-04-15 05:12 pmNNE 5.1 8.0----30.01- 48.7 44.6 30.6---
2024-04-15 05:06 pmNNE 4.1 7.0----30.01- 49.3 44.6 30.7---
2024-04-15 05:00 pmNNE 5.1 8.0----30.01-0.02 49.5 44.6 29.5---
2024-04-15 04:54 pmNNE 7.0 8.9----30.01- 50.4 44.6 28.6---
2024-04-15 04:48 pmNNE 5.1 8.0----30.01- 50.0 44.6 28.0---
2024-04-15 04:42 pmNNE 4.1 8.9----30.01- 49.6 44.6 29.7---
2024-04-15 04:36 pm NE 7.0 9.9----30.01- 49.1 44.6 29.3---
2024-04-15 04:30 pmNNE 7.0 8.9----30.01- 50.0 44.6 27.9---
2024-04-15 04:24 pmNNE 5.1 7.0----30.01- 49.5 44.6 29.8---
2024-04-15 04:18 pmNNE 4.1 5.1------ 50.4 44.6 29.8---
2024-04-15 04:12 pmNNE 1.9 5.1------ 51.3 44.6 30.4---
2024-04-15 04:06 pmNNE 1.9 5.1------ 52.7 44.6 28.6---
2024-04-15 04:00 pmNNE 1.0 2.9----30.01-0.01 52.9 44.6 28.0---
2024-04-15 03:54 pmNNE 2.9 5.1----30.01- 51.1 44.6 27.7---
2024-04-15 03:48 pmNNE 2.9 5.1----30.01- 51.1 44.6 27.5---
2024-04-15 03:42 pmNNE 2.9 5.1----30.01- 52.2 44.6 28.4---
2024-04-15 03:36 pm N 1.9 4.1----30.01- 51.8 44.6 27.9---
2024-04-15 03:30 pm N 1.9 7.0----30.01- 51.4 44.6 29.5---
2024-04-15 03:24 pmNNE 2.9 6.0----30.01- 51.8 44.6 30.4---
2024-04-15 03:18 pmNNE 2.9 4.1----30.01- 52.0 44.6 28.9---
2024-04-15 03:12 pmNNE 2.9 4.1----30.02- 51.8 44.6 28.6---
2024-04-15 03:06 pm N 1.9 2.9----30.02- 52.0 44.6 28.2---
2024-04-15 03:00 pmNNE 2.9 4.1----30.02-0.02 52.9 44.6 29.1---
2024-04-15 02:54 pmNNE 1.9 2.9----30.02- 52.7 44.6 29.5---